Fort Knox, KY

3:40 AM EDT on May 26, 2017 (GMT -0400)
Godman Army Air Field

Weather History for KFTK - November, 2011

Change the Weather History Date:

Wednesday, November 9, 2011

  Actual Average Record
Temperature  
Mean Temperature 56 °F -  
Max Temperature 66 °F 55 °F 75 °F (2005)
Min Temperature 44 °F 37 °F 29 °F (2014)
Degree Days  
Heating Degree Days 10    
Growing Degree Days 6 (Base 50)    
Moisture  
Dew Point 50 °F    
Average Humidity 75    
Maximum Humidity 100    
Minimum Humidity 58    
Precipitation  
Precipitation 0.05 in - - ()
Sea Level Pressure  
Sea Level Pressure 29.96 in    
Wind  
Wind Speed 13 mph (SW)    
Max Wind Speed 24 mph    
Max Gust Speed 33 mph    
Visibility 9 miles    
Events Rain    
Averages and records for this station are not official NWS values.
T = Trace of Precipitation, MM = Missing Value Source: NWS Daily Summary

Daily Weather History Graph

Daily Weather History Graph

Search for Another Location

Airport or City:

Trip Planner

Search our weather history database for the weather conditions in past years. The results will help you decide how hot, cold, wet, or windy it might be!

Date:

Astronomy

Nov. 09, 2011 Rise Set
Actual Time 7:17 AM EST 5:37 PM EST
Civil Twilight 6:49 AM EST 6:04 PM EST
Nautical Twilight 6:18 AM EST 6:36 PM EST
Astronomical Twilight 5:47 AM EST 7:07 PM EST
Moon 4:48 PM EST (11/9) 6:12 AM EST (11/9)
Length of Visible Light 11h 14m
Length of Day
10h 19m
Waxing Gibbous, 99% of the Moon is Illuminated
Nov 9
Waxing Gibbous
Nov 10
Full
Nov 18
Last Quarter
Nov 25
New
Dec 2
First Quarter

Hourly Weather History & Observations

Time (EST) Temp. Windchill Dew Point Humidity Pressure Visibility Wind Dir Wind Speed Gust Speed Precip Events Conditions
12:55 AM 62.6 °F - 51.8 °F 68% 29.99 in 10.0 mi South 10.4 mph - N/A   Overcast
1:55 AM 61.9 °F - 51.8 °F 69% 29.96 in 10.0 mi SSE 9.2 mph - N/A   Overcast
2:55 AM 61.9 °F - 52.2 °F 70% 29.95 in 10.0 mi SSE 6.9 mph - N/A   Overcast
3:55 AM 62.8 °F - 52.2 °F 68% 29.93 in 10.0 mi SSE 10.4 mph - N/A   Mostly Cloudy
4:55 AM 62.8 °F - 53.1 °F 71% 29.91 in 10.0 mi South 12.7 mph 20.7 mph 0.00 in Rain Light Rain
5:43 AM 60.8 °F - 53.6 °F 77% 29.89 in 10.0 mi SSE 11.5 mph 19.6 mph N/A   Overcast
5:55 AM 61.3 °F - 53.8 °F 76% 29.89 in 10.0 mi SSE 10.4 mph - 0.01 in   Mostly Cloudy
6:55 AM 62.4 °F - 53.6 °F 73% 29.87 in 10.0 mi SSE 10.4 mph 23.0 mph N/A   Mostly Cloudy
7:45 AM 62.6 °F - 55.4 °F 77% 29.87 in 10.0 mi South 15.0 mph 20.7 mph N/A Rain Light Rain Showers
7:55 AM 61.9 °F - 54.7 °F 77% 29.87 in 10.0 mi South 12.7 mph 20.7 mph 0.00 in Rain Light Rain
8:31 AM 62.6 °F - 55.4 °F 77% 29.87 in 10.0 mi South 13.8 mph 19.6 mph N/A   Overcast
8:55 AM 64.2 °F - 55.6 °F 73% 29.87 in 10.0 mi South 16.1 mph 20.7 mph 0.00 in   Overcast
9:55 AM 66.4 °F - 57.4 °F 73% 29.87 in 10.0 mi SSW 16.1 mph 31.1 mph N/A   Overcast
10:42 AM 66.2 °F - 57.2 °F 73% 29.88 in 4.0 mi SW 24.2 mph 32.2 mph N/A Rain Light Rain Showers
10:45 AM 66.2 °F - 57.2 °F 73% 29.88 in 2.0 mi WSW 17.3 mph 32.2 mph N/A Rain Rain Showers
10:55 AM 61.9 °F - 58.8 °F 90% 29.90 in 2.5 mi West 21.9 mph 28.8 mph 0.02 in Rain Light Rain
11:29 AM 57.2 °F - 57.2 °F 100% 29.91 in 6.0 mi SW 16.1 mph 23.0 mph N/A Rain Light Rain
11:55 AM 57.7 °F - 57.2 °F 98% 29.90 in 6.0 mi SW 12.7 mph - 0.02 in Rain Light Rain
12:07 PM 57.2 °F - 57.2 °F 100% 29.90 in 9.0 mi SW 11.5 mph 20.7 mph N/A Rain Light Rain
12:46 PM 59.0 °F - 59.0 °F 100% 29.89 in 10.0 mi SW 17.3 mph - N/A   Mostly Cloudy
12:55 PM 59.9 °F - 57.9 °F 93% 29.89 in 10.0 mi WSW 12.7 mph 24.2 mph 0.00 in   Mostly Cloudy
1:55 PM 63.5 °F - 48.4 °F 58% 29.89 in 10.0 mi SW 21.9 mph 33.4 mph N/A   Scattered Clouds
2:55 PM 60.3 °F - 47.5 °F 63% 29.92 in 10.0 mi West 21.9 mph 29.9 mph N/A   Mostly Cloudy
3:55 PM 55.4 °F - 46.2 °F 71% 29.96 in 10.0 mi West 21.9 mph 31.1 mph N/A   Overcast
4:55 PM 51.8 °F - 40.1 °F 64% 30.01 in 10.0 mi WNW 23.0 mph 31.1 mph N/A   Mostly Cloudy
5:55 PM 48.4 °F - 37.4 °F 66% 30.05 in 10.0 mi West 18.4 mph 28.8 mph N/A   Overcast
6:55 PM 47.7 °F - 37.6 °F 68% 30.07 in 10.0 mi WNW 17.3 mph 23.0 mph N/A   Overcast
7:55 PM 46.8 °F - 37.2 °F 69% 30.10 in 10.0 mi WNW 13.8 mph - N/A   Overcast
8:55 PM 46.4 °F 40.4 °F 36.5 °F 68% 30.12 in 10.0 mi WNW 13.8 mph 25.3 mph N/A   Overcast
9:55 PM 45.9 °F 40.8 °F 36.0 °F 68% 30.14 in 10.0 mi WNW 10.4 mph - N/A   Overcast
10:36 PM 46.4 °F 41.5 °F 37.4 °F 71% 30.14 in 10.0 mi WNW 10.4 mph - N/A   Overcast
10:55 PM 45.3 °F 39.7 °F 36.9 °F 72% 30.15 in 10.0 mi NW 11.5 mph - N/A   Overcast
11:55 PM 44.4 °F 41.2 °F 35.8 °F 72% 30.17 in 10.0 mi WNW 5.8 mph - N/A   Overcast